Time,TemperatureF,DewpointF,PressureIn,WindDirection,WindDirectionDegrees,WindSpeedMPH,WindSpeedGustMPH,Humidity,HourlyPrecipIn,Conditions,Clouds,dailyrainin,SoftwareType,DateUTC
2013-08-29 00:05:00,63.7,63.0,29.91,SSW,213,0.0,0.0,97,0.00,,,0.00,weatherlink.com 1.10,2013-08-29 07:05:00,
2013-08-29 00:21:00,63.6,63.0,29.91,SSW,213,0.0,0.0,97,0.00,,,0.00,weatherlink.com 1.10,2013-08-29 07:21:00,
2013-08-29 00:36:00,63.6,63.0,29.91,SE,132,0.0,3.0,97,0.00,,,0.00,weatherlink.com 1.10,2013-08-29 07:36:00,
2013-08-29 00:51:00,64.0,63.0,29.91,East,99,0.0,5.0,97,0.00,,,0.00,weatherlink.com 1.10,2013-08-29 07:51:00,
2013-08-29 01:06:00,64.2,63.0,29.90,ESE,105,1.0,4.0,96,0.00,,,0.00,weatherlink.com 1.10,2013-08-29 08:06:00,
2013-08-29 01:21:00,64.4,63.0,29.90,ESE,109,0.0,3.0,96,0.00,,,0.00,weatherlink.com 1.10,2013-08-29 08:21:00,
2013-08-29 01:36:00,64.6,63.0,29.91,ESE,122,0.0,4.0,95,0.00,,,0.00,weatherlink.com 1.10,2013-08-29 08:36:00,
2013-08-29 01:51:00,65.1,63.0,29.91,East,88,1.0,6.0,94,0.01,,,0.01,weatherlink.com 1.10,2013-08-29 08:51:00,
2013-08-29 02:06:00,65.2,64.0,29.91,ENE,74,0.0,6.0,94,0.02,,,0.02,weatherlink.com 1.10,2013-08-29 09:06:00,
2013-08-29 02:21:00,64.8,63.0,29.91,ENE,75,1.0,2.0,95,0.02,,,0.02,weatherlink.com 1.10,2013-08-29 09:21:00,
2013-08-29 02:36:00,64.5,63.0,29.92,ENE,76,1.0,3.0,95,0.03,,,0.03,weatherlink.com 1.10,2013-08-29 09:36:00,
2013-08-29 02:51:00,64.8,63.0,29.92,East,101,0.0,7.0,95,0.03,,,0.04,weatherlink.com 1.10,2013-08-29 09:51:00,
2013-08-29 03:06:00,64.6,63.0,29.91,East,87,2.0,4.0,95,0.03,,,0.05,weatherlink.com 1.10,2013-08-29 10:06:00,
2013-08-29 03:21:00,64.6,63.0,29.91,East,100,0.0,1.0,95,0.05,,,0.07,weatherlink.com 1.10,2013-08-29 10:21:00,
2013-08-29 03:36:00,64.1,63.0,29.91,East,100,0.0,2.0,96,0.04,,,0.07,weatherlink.com 1.10,2013-08-29 10:36:00,
2013-08-29 03:51:00,64.1,63.0,29.91,East,100,0.0,0.0,97,0.03,,,0.07,weatherlink.com 1.10,2013-08-29 10:51:00,
2013-08-29 04:06:00,64.0,63.0,29.92,East,100,1.0,2.0,97,0.02,,,0.08,weatherlink.com 1.10,2013-08-29 11:06:00,
2013-08-29 04:21:00,64.2,63.0,29.91,ENE,78,2.0,7.0,96,0.03,,,0.10,weatherlink.com 1.10,2013-08-29 11:21:00,
2013-08-29 04:36:00,64.1,63.0,29.92,ESE,120,8.0,8.0,95,0.04,,,0.11,weatherlink.com 1.10,2013-08-29 11:36:00,
2013-08-29 04:51:00,64.0,63.0,29.92,ESE,102,1.0,5.0,95,0.05,,,0.12,weatherlink.com 1.10,2013-08-29 11:51:00,
2013-08-29 05:06:00,63.8,62.0,29.93,East,88,1.0,6.0,95,0.05,,,0.13,weatherlink.com 1.10,2013-08-29 12:06:00,
2013-08-29 05:21:00,63.5,62.0,29.93,ESE,113,2.0,4.0,95,0.04,,,0.14,weatherlink.com 1.10,2013-08-29 12:21:00,
2013-08-29 05:36:00,63.4,62.0,29.93,East,96,1.0,9.0,95,0.05,,,0.16,weatherlink.com 1.10,2013-08-29 12:36:00,
2013-08-29 05:51:00,63.3,62.0,29.93,ESE,103,4.0,8.0,95,0.05,,,0.17,weatherlink.com 1.10,2013-08-29 12:51:00,
2013-08-29 06:06:00,63.1,62.0,29.93,ENE,74,4.0,8.0,96,0.05,,,0.18,weatherlink.com 1.10,2013-08-29 13:06:00,
2013-08-29 06:21:00,63.0,62.0,29.93,East,90,5.0,7.0,96,0.05,,,0.19,weatherlink.com 1.10,2013-08-29 13:21:00,
2013-08-29 06:36:00,62.8,62.0,29.93,ENE,58,4.0,7.0,96,0.06,,,0.22,weatherlink.com 1.10,2013-08-29 13:36:00,
2013-08-29 06:51:00,62.7,62.0,29.93,ESE,112,3.0,7.0,96,0.07,,,0.24,weatherlink.com 1.10,2013-08-29 13:51:00,
2013-08-29 07:06:00,62.6,62.0,29.93,East,84,2.0,6.0,96,0.08,,,0.26,weatherlink.com 1.10,2013-08-29 14:06:00,
2013-08-29 07:21:00,62.5,61.0,29.93,East,96,2.0,5.0,96,0.07,,,0.27,weatherlink.com 1.10,2013-08-29 14:21:00,
2013-08-29 07:36:00,62.4,61.0,29.92,East,99,3.0,6.0,96,0.07,,,0.29,weatherlink.com 1.10,2013-08-29 14:36:00,
2013-08-29 07:51:00,62.4,61.0,29.92,ESE,111,3.0,7.0,96,0.08,,,0.32,weatherlink.com 1.10,2013-08-29 14:51:00,
2013-08-29 08:06:00,62.4,61.0,29.92,ESE,109,2.0,5.0,96,0.08,,,0.34,weatherlink.com 1.10,2013-08-29 15:06:00,
2013-08-29 08:21:00,62.3,61.0,29.92,ESE,106,4.0,5.0,96,0.11,,,0.38,weatherlink.com 1.10,2013-08-29 15:21:00,
2013-08-29 08:36:00,62.5,61.0,29.93,East,87,3.0,9.0,96,0.10,,,0.39,weatherlink.com 1.10,2013-08-29 15:36:00,
2013-08-29 08:51:00,62.5,61.0,29.92,ESE,117,2.0,5.0,96,0.08,,,0.40,weatherlink.com 1.10,2013-08-29 15:51:00,
2013-08-29 09:06:00,62.4,61.0,29.93,ESE,111,4.0,8.0,96,0.08,,,0.43,weatherlink.com 1.10,2013-08-29 16:06:00,
2013-08-29 09:21:00,62.4,61.0,29.94,NE,50,1.0,7.0,96,0.07,,,0.45,weatherlink.com 1.10,2013-08-29 16:21:00,
2013-08-29 09:36:00,62.5,61.0,29.93,East,90,1.0,6.0,96,0.08,,,0.47,weatherlink.com 1.10,2013-08-29 16:36:00,
2013-08-29 09:51:00,62.5,61.0,29.94,ESE,105,1.0,3.0,96,0.10,,,0.50,weatherlink.com 1.10,2013-08-29 16:51:00,
2013-08-29 10:06:00,62.4,61.0,29.94,ESE,113,5.0,6.0,96,0.09,,,0.52,weatherlink.com 1.10,2013-08-29 17:06:00,
2013-08-29 10:21:00,62.4,61.0,29.94,ENE,74,0.0,5.0,96,0.10,,,0.55,weatherlink.com 1.10,2013-08-29 17:21:00,
2013-08-29 10:36:00,62.3,61.0,29.95,ESE,111,2.0,4.0,96,0.11,,,0.58,weatherlink.com 1.10,2013-08-29 17:36:00,
2013-08-29 10:51:00,62.3,61.0,29.94,ESE,119,5.0,7.0,96,0.13,,,0.63,weatherlink.com 1.10,2013-08-29 17:51:00,
2013-08-29 11:06:00,62.2,61.0,29.95,ENE,76,7.0,9.0,96,0.18,,,0.70,weatherlink.com 1.10,2013-08-29 18:06:00,
2013-08-29 11:21:00,62.2,61.0,29.95,ESE,117,7.0,10.0,96,0.22,,,0.77,weatherlink.com 1.10,2013-08-29 18:21:00,
2013-08-29 11:36:00,62.3,61.0,29.94,ESE,105,8.0,9.0,96,0.24,,,0.82,weatherlink.com 1.10,2013-08-29 18:36:00,
2013-08-29 11:51:00,62.8,61.0,29.93,ESE,117,5.0,9.0,94,0.18,,,0.82,weatherlink.com 1.10,2013-08-29 18:51:00,
2013-08-29 12:06:00,63.1,61.0,29.94,East,87,2.0,8.0,94,0.12,,,0.82,weatherlink.com 1.10,2013-08-29 19:06:00,
2013-08-29 12:21:00,63.1,62.0,29.96,NE,56,0.0,4.0,95,0.05,,,0.82,weatherlink.com 1.10,2013-08-29 19:21:00,
2013-08-29 12:36:00,63.2,62.0,29.94,SE,134,0.0,5.0,96,0.02,,,0.84,weatherlink.com 1.10,2013-08-29 19:36:00,
2013-08-29 12:51:00,63.5,62.0,29.95,East,94,2.0,3.0,95,0.02,,,0.84,weatherlink.com 1.10,2013-08-29 19:51:00,
2013-08-29 13:06:00,63.8,63.0,29.95,North,9,0.0,3.0,96,0.02,,,0.84,weatherlink.com 1.10,2013-08-29 20:06:00,
2013-08-29 13:21:00,63.8,63.0,29.96,North,5,2.0,3.0,97,0.09,,,0.91,weatherlink.com 1.10,2013-08-29 20:21:00,
2013-08-29 13:36:00,63.7,63.0,29.97,South,171,0.0,8.0,97,0.09,,,0.93,weatherlink.com 1.10,2013-08-29 20:36:00,
2013-08-29 13:51:00,63.9,63.0,29.97,South,171,0.0,2.0,97,0.09,,,0.93,weatherlink.com 1.10,2013-08-29 20:51:00,
2013-08-29 14:06:00,64.2,63.0,29.98,South,171,0.0,1.0,97,0.12,,,0.96,weatherlink.com 1.10,2013-08-29 21:06:00,
2013-08-29 14:21:00,64.4,63.0,29.98,SSE,159,0.0,2.0,96,0.04,,,0.96,weatherlink.com 1.10,2013-08-29 21:21:00,
2013-08-29 14:36:00,65.3,65.0,29.97,SSE,159,0.0,0.0,98,0.03,,,0.96,weatherlink.com 1.10,2013-08-29 21:36:00,
2013-08-29 14:52:00,65.8,65.0,29.97,SSE,166,0.0,1.0,97,0.03,,,0.96,weatherlink.com 1.10,2013-08-29 21:52:00,
2013-08-29 15:07:00,65.6,65.0,29.97,South,178,0.0,1.0,96,0.00,,,0.96,weatherlink.com 1.10,2013-08-29 22:07:00,
2013-08-29 15:22:00,65.6,65.0,29.97,South,179,2.0,2.0,96,0.00,,,0.96,weatherlink.com 1.10,2013-08-29 22:22:00,
2013-08-29 15:37:00,65.7,65.0,29.97,South,179,0.0,1.0,97,0.00,,,0.96,weatherlink.com 1.10,2013-08-29 22:37:00,
2013-08-29 15:52:00,65.6,65.0,29.96,South,179,0.0,2.0,97,0.00,,,0.96,weatherlink.com 1.10,2013-08-29 22:52:00,
2013-08-29 16:07:00,65.5,65.0,29.96,SW,230,0.0,1.0,97,0.00,,,0.96,weatherlink.com 1.10,2013-08-29 23:07:00,
2013-08-29 16:22:00,65.3,65.0,29.96,SW,230,0.0,2.0,97,0.00,,,0.96,weatherlink.com 1.10,2013-08-29 23:22:00,
2013-08-29 16:37:00,65.4,65.0,29.95,SW,232,0.0,1.0,97,0.00,,,0.96,weatherlink.com 1.10,2013-08-29 23:37:00,
2013-08-29 16:52:00,65.5,65.0,29.95,SSW,196,1.0,2.0,97,0.00,,,0.96,weatherlink.com 1.10,2013-08-29 23:52:00,
2013-08-29 17:07:00,65.9,65.0,29.95,South,171,1.0,2.0,97,0.00,,,0.96,weatherlink.com 1.10,2013-08-30 00:07:00,
2013-08-29 17:22:00,66.2,65.0,29.95,South,171,0.0,1.0,96,0.00,,,0.96,weatherlink.com 1.10,2013-08-30 00:22:00,
2013-08-29 17:37:00,66.0,65.0,29.95,South,171,0.0,0.0,97,0.00,,,0.96,weatherlink.com 1.10,2013-08-30 00:37:00,
2013-08-29 17:52:00,65.6,65.0,29.96,South,171,0.0,0.0,96,0.02,,,0.98,weatherlink.com 1.10,2013-08-30 00:52:00,
2013-08-29 18:07:00,65.3,65.0,29.96,South,171,0.0,0.0,97,0.04,,,1.00,weatherlink.com 1.10,2013-08-30 01:07:00,
2013-08-29 18:22:00,64.9,64.0,29.96,ESE,123,3.0,4.0,97,0.13,,,1.09,weatherlink.com 1.10,2013-08-30 01:22:00,
2013-08-29 18:37:00,64.5,64.0,29.97,ENE,78,3.0,4.0,97,0.15,,,1.11,weatherlink.com 1.10,2013-08-30 01:37:00,
2013-08-29 18:52:00,64.3,64.0,29.98,East,97,0.0,2.0,97,0.17,,,1.15,weatherlink.com 1.10,2013-08-30 01:52:00,
2013-08-29 19:07:00,64.2,63.0,29.98,East,97,0.0,1.0,97,0.16,,,1.16,weatherlink.com 1.10,2013-08-30 02:07:00,
2013-08-29 19:22:00,64.1,64.0,29.99,East,97,0.0,2.0,98,0.07,,,1.16,weatherlink.com 1.10,2013-08-30 02:22:00,
2013-08-29 19:37:00,63.8,63.0,30.00,East,98,0.0,3.0,98,0.32,,,1.44,weatherlink.com 1.10,2013-08-30 02:37:00,
2013-08-29 19:52:00,63.6,63.0,30.00,East,93,0.0,5.0,98,0.65,,,1.80,weatherlink.com 1.10,2013-08-30 02:52:00,
2013-08-29 20:07:00,63.6,63.0,30.00,East,94,2.0,2.0,98,0.78,,,1.94,weatherlink.com 1.10,2013-08-30 03:07:00,
2013-08-29 20:22:00,63.5,63.0,30.01,East,93,0.0,0.0,98,0.80,,,1.97,weatherlink.com 1.10,2013-08-30 03:22:00,
2013-08-29 20:37:00,63.5,63.0,30.01,ENE,76,0.0,2.0,98,0.52,,,1.97,weatherlink.com 1.10,2013-08-30 03:37:00,
2013-08-29 20:52:00,63.5,63.0,30.02,ENE,76,0.0,2.0,98,0.17,,,1.98,weatherlink.com 1.10,2013-08-30 03:52:00,
2013-08-29 21:07:00,63.4,63.0,30.01,ENE,76,0.0,2.0,98,0.04,,,1.98,weatherlink.com 1.10,2013-08-30 04:07:00,
2013-08-29 21:22:00,63.3,63.0,30.02,ENE,76,0.0,0.0,98,0.07,,,2.04,weatherlink.com 1.10,2013-08-30 04:22:00,
2013-08-29 21:37:00,63.1,63.0,30.01,ENE,76,0.0,0.0,98,0.12,,,2.09,weatherlink.com 1.10,2013-08-30 04:37:00,
2013-08-29 21:52:00,63.1,63.0,30.02,ENE,76,0.0,0.0,98,0.14,,,2.12,weatherlink.com 1.10,2013-08-30 04:52:00,
2013-08-29 22:07:00,63.2,63.0,30.02,ENE,76,0.0,3.0,98,0.17,,,2.15,weatherlink.com 1.10,2013-08-30 05:07:00,
2013-08-29 22:22:00,63.2,63.0,30.02,ENE,76,0.0,0.0,98,0.13,,,2.17,weatherlink.com 1.10,2013-08-30 05:22:00,
2013-08-29 22:37:00,63.1,63.0,30.02,ENE,76,0.0,0.0,98,0.10,,,2.19,weatherlink.com 1.10,2013-08-30 05:37:00,
2013-08-29 22:52:00,63.0,63.0,30.02,ENE,75,0.0,5.0,98,0.26,,,2.38,weatherlink.com 1.10,2013-08-30 05:52:00,
2013-08-29 23:07:00,63.0,63.0,30.03,ENE,75,0.0,3.0,98,0.25,,,2.40,weatherlink.com 1.10,2013-08-30 06:07:00,
2013-08-29 23:22:00,62.8,62.0,30.02,ENE,75,0.0,1.0,98,0.23,,,2.40,weatherlink.com 1.10,2013-08-30 06:22:00,
2013-08-29 23:37:00,62.8,62.0,30.03,NNW,337,0.0,3.0,98,0.22,,,2.41,weatherlink.com 1.10,2013-08-30 06:37:00,
2013-08-29 23:52:00,62.7,62.0,30.03,ESE,123,0.0,5.0,98,0.04,,,2.43,weatherlink.com 1.10,2013-08-30 06:52:00,